Lancaster, OH

1:32 PM EDT on April 28, 2017 (GMT -0400)
Fairfield County

Weather History for KLHQ - November, 2010

Change the Weather History Date:

Tuesday, November 2, 2010

  Actual Average Record
Temperature  
Mean Temperature 38 °F -  
Max Temperature 53 °F 63 °F 80 °F (1987)
Min Temperature 25 °F 41 °F 22 °F (1954)
Degree Days  
Heating Degree Days 26    
Moisture  
Dew Point 27 °F    
Average Humidity 67    
Maximum Humidity 92    
Minimum Humidity 37    
Precipitation  
Precipitation 0.00 in - - ()
Sea Level Pressure  
Sea Level Pressure 30.38 in    
Wind  
Wind Speed 5 mph (NE)    
Max Wind Speed 12 mph    
Max Gust Speed -    
Visibility 10 miles    
Events      
Averages and records for this station are not official NWS values.
T = Trace of Precipitation, MM = Missing Value Source: NWS Daily Summary

Daily Weather History Graph

Daily Weather History Graph

Search for Another Location

Airport or City:

Trip Planner

Search our weather history database for the weather conditions in past years. The results will help you decide how hot, cold, wet, or windy it might be!

Date:

Astronomy

Nov. 02, 2010 Rise Set
Actual Time 8:00 AM EDT 6:27 PM EDT
Civil Twilight 7:32 AM EDT 6:55 PM EDT
Nautical Twilight 7:00 AM EDT 7:27 PM EDT
Astronomical Twilight 6:28 AM EDT 7:58 PM EDT
Moon 3:46 AM EDT (11/2) 4:04 PM EDT (11/2)
Length of Visible Light 11h 23m
Length of Day
10h 27m
Waning Crescent, 17% of the Moon is Illuminated
Nov 2
Waning Crescent
Nov 6
New
Nov 13
First Quarter
Nov 21
Full
Nov 28
Last Quarter

Hourly Weather History & Observations

Time (EDT) Temp. Windchill Dew Point Humidity Pressure Visibility Wind Dir Wind Speed Gust Speed Precip Events Conditions
12:53 AM 34.0 °F 28.0 °F 26.1 °F 73% 30.45 in 10.0 mi NE 6.9 mph - N/A   Clear
1:53 AM 30.9 °F - 25.0 °F 79% 30.46 in 10.0 mi Calm Calm - N/A   Clear
2:53 AM 32.0 °F - 25.0 °F 75% 30.45 in 10.0 mi Calm Calm - N/A   Clear
3:53 AM 30.0 °F - 24.1 °F 79% 30.45 in 10.0 mi Calm Calm - N/A   Clear
4:53 AM 28.9 °F 25.2 °F 25.0 °F 85% 30.44 in 10.0 mi North 3.5 mph - N/A   Clear
5:53 AM 30.0 °F 26.5 °F 25.0 °F 82% 30.43 in 10.0 mi North 3.5 mph - N/A   Clear
6:53 AM 28.0 °F 24.2 °F 24.1 °F 85% 30.43 in 10.0 mi NNE 3.5 mph - N/A   Clear
7:53 AM 25.0 °F 20.7 °F 23.0 °F 92% 30.44 in 10.0 mi North 3.5 mph - N/A   Clear
8:53 AM 30.9 °F - 26.1 °F 82% 30.45 in 10.0 mi Calm Calm - N/A   Clear
9:53 AM 35.1 °F 28.6 °F 28.0 °F 76% 30.46 in 10.0 mi ENE 8.1 mph - N/A   Clear
10:53 AM 39.9 °F 33.4 °F 28.9 °F 65% 30.43 in 10.0 mi NE 10.4 mph - N/A   Clear
11:53 AM 45.0 °F 40.1 °F 28.0 °F 52% 30.43 in 10.0 mi ENE 9.2 mph - N/A   Clear
12:53 PM 48.9 °F - 28.9 °F 46% 30.38 in 10.0 mi ENE 10.4 mph - N/A   Clear
1:53 PM 50.0 °F - 28.0 °F 43% 30.36 in 10.0 mi East 8.1 mph - N/A   Clear
2:53 PM 52.0 °F - 27.0 °F 38% 30.32 in 10.0 mi ENE 11.5 mph - N/A   Clear
3:53 PM 52.0 °F - 26.1 °F 37% 30.31 in 10.0 mi NE 10.4 mph - N/A   Clear
4:53 PM 51.1 °F - 28.0 °F 41% 30.30 in 10.0 mi NNE 11.5 mph - N/A   Clear
5:53 PM 46.9 °F - 28.0 °F 48% 30.30 in 10.0 mi NNE 5.8 mph - N/A   Clear
6:53 PM 41.0 °F 38.0 °F 27.0 °F 57% 30.30 in 10.0 mi NNE 4.6 mph - N/A   Clear
7:53 PM 36.0 °F 33.3 °F 28.0 °F 73% 30.31 in 10.0 mi NNE 3.5 mph - N/A   Clear
8:53 PM 35.1 °F - 28.0 °F 76% 30.31 in 10.0 mi Calm Calm - N/A   Clear
9:53 PM 34.0 °F - 28.0 °F 79% 30.29 in 10.0 mi Calm Calm - N/A   Clear
10:53 PM 36.0 °F 33.3 °F 28.0 °F 73% 30.28 in 10.0 mi NW 3.5 mph - N/A   Clear
11:53 PM 32.0 °F - 27.0 °F 82% 30.25 in 10.0 mi Calm Calm - N/A   Clear